CAPE
0 0 0 0 0 0 0 0 0 0 0 0 0 0 0 0 0 34 15 4 5 148 222 434 580 656 941 1429 1940 2090 2256 2254 1996 1943 2176 2339 2111 1933 1737 1866 1780 1478 1252 1085
0 0 0 0 0 0 0 0 0 0 0 0 0 0 0 0 0 0 10 23 0 148 316 401 664 746 829 1306 2015 2264 2345 2325 2348 2296 2225 2255 2370 2325 2083 1849 2097 1723 1484 1311
0 0 0 0 0 0 0 0 0 0 0 0 0 0 0 0 0 0 0 0 3 158 251 539 779 864 871 1179 1921 2327 2318 2534 2524 2501 2473 2448 2442 2496 2540 2259 2048 2014 1780 1645
0 0 0 0 0 0 0 0 0 0 0 0 0 0 0 0 0 0 0 0 182 342 498 729 815 931 1068 1105 1547 2148 2268 2467 2630 2544 2464 2561 2611 2565 2567 2747 2452 2302 1997 1782
0 0 0 0 0 0 0 0 0 0 0 0 0 0 0 0 0 0 0 0 1 396 491 510 618 746 964 1203 1434 1718 2050 2274 2486 2508 2431 2517 2497 2517 2591 2733 2821 2699 2577 2184
0 0 0 0 0 0 0 0 4 0 0 0 0 0 0 1 0 0 0 0 0 194 799 852 590 666 793 983 1306 1518 1767 1812 2268 2428 2400 2348 2463 2472 2577 2644 2790 2844 2820 2465
0 2 0 0 0 5 0 4 189 53 5 0 0 0 3 24 2 4 0 0 8 0 113 396 972 827 753 806 935 1269 1540 1732 1896 2350 2335 2332 2396 2541 2575 2621 2745 2813 2687 2359
0 0 0 2 6 0 73 519 238 182 53 13 172 639 949 800 206 68 3 0 62 44 0 3 275 1029 768 827 858 1055 1277 1425 1469 1888 2193 2230 2317 2537 2564 2665 2559 2318 2102 1789
0 1 0 146 690 837 869 643 654 445 554 409 521 749 1107 1376 1717 1854 1456 1402 1243 137 8 0 84 753 837 1072 1041 1001 1155 1151 1444 1644 1884 2190 2409 2607 2612 2416 2154 1787 1641 1211
0 8 33 5 50 338 660 608 623 648 634 755 992 1447 1610 1739 1763 1848 2271 2490 2416 1618 857 230 271 330 984 1063 1211 1320 1442 1533 2003 2196 2392 2614 2650 2541 2326 2139 1957 1628 1419 1743
0 1 52 0 0 6 22 156 298 77 252 468 859 1036 1228 1462 1672 1981 2335 2608 2775 2901 2669 2631 2507 1247 1760 2113 1869 2198 2411 2708 2975 2755 2555 1851 1049 1299 1525 1119 1427 1433 1401 1034
3 7 0 0 0 0 0 0 0 22 63 14 199 402 414 648 832 1292 1571 1547 1353 1009 1094 1456 1536 2041 2856 2785 2620 2368 2311 2200 1955 1508 1068 613 353 256 2 129 15 762 735 755
0 1 0 0 0 0 0 0 0 0 0 0 0 14 52 55 172 549 734 934 1153 889 409 546 0 1 734 2058 2280 2381 2116 1736 1095 739 834 494 232 201 95 0 1 155 282 279
2 5 0 0 0 0 0 0 0 0 0 0 0 0 0 0 6 167 310 320 134 23 0 292 537 106 705 784 832 957 1025 1082 703 144 220 41 78 100 245 366 290 38 0 14
14 0 1 0 0 0 0 0 0 0 0 0 0 0 0 0 0 48 408 445 489 423 475 571 629 624 746 548 679 802 596 561 593 419 364 186 66 43 77 53 13 0 0 0
0 0 0 0 0 0 0 0 0 0 0 0 0 0 0 0 0 0 75 184 276 247 295 289 357 268 419 530 661 693 658 591 538 462 395 259 211 118 20 9 0 0 0 0
0 0 0 0 0 0 0 0 0 0 0 0 0 0 0 0 0 0 0 24 197 185 92 148 121 144 139 403 565 580 573 489 339 289 262 222 143 26 0 0 0 0 0 0
0 0 0 0 0 0 0 0 3 0 0 0 0 0 0 0 0 0 0 0 4 84 32 29 21 32 35 2 16 5 310 695 558 485 346 229 132 9 0 0 0 0 0 0
4 17 9 9 12 2 1 2 0 6 3 0 0 0 0 1 4 3 0 0 0 0 6 10 47 46 7 1 0 2 13 148 122 142 118 122 188 211 58 27 0 0 0 0
31 44 50 63 40 38 47 26 12 17 25 39 16 12 0 0 0 1 0 0 0 0 0 0 0 1 5 0 0 0 12 3 0 0 0 2 0 0 34 36 5 0 0 0
33 37 48 43 52 35 37 28 28 26 55 45 53 32 30 28 41 7 0 0 0 0 0 0 0 0 0 0 0 0 19 15 5 0 2 1 0 2 10 27 22 24 8 0
29 38 22 17 13 35 34 14 54 5 6 33 36 50 31 11 11 7 0 0 0 0 0 0 0 0 0 0 1 33 60 66 54 23 3 6 6 3 2 0 13 13 3 1
0 0 0 0 0 0 0 10 3 0 3 6 0 21 22 4 0 3 0 0 0 0 0 0 0 0 0 0 0 17 12 41 23 22 6 0 0 0 0 1 11 14 18 13
0 0 0 0 0 0 0 0 0 0 0 0 0 0 0 0 2 2 0 0 0 0 0 0 0 0 0 0 0 1 2 1 0 1 0 0 0 0 0 0 1 21 40 36
0 0 0 0 0 0 0 0 0 0 0 0 0 0 0 0 0 0 0 0 0 0 0 0 0 0 0 0 0 0 0 0 0 0 0 0 0 0 0 0 0 0 1 33
0 0 0 0 0 0 0 0 0 0 0 0 0 0 0 0 0 0 0 0 0 0 0 0 0 0 0 0 0 0 0 0 0 0 0 0 0 0 0 0 0 0 0 0
0 0 0 0 0 0 0 0 0 0 0 0 0 0 0 0 0 0 0 0 0 0 0 0 0 0 0 0 0 0 0 0 0 0 0 0 0 0 0 0 0 0 0 0
CIN
0 0 0 0 0 0 0 0 0 0 0 0 0 0 0 0 0 -113 -109 -30 -77 -124 -199 -282 -337 -406 -449 -437 -455 -418 -373 -355 -332 -308 -289 -259 -254 -268 -270 -221 -201 -221 -225 -256
0 0 0 0 0 0 0 0 0 0 0 0 0 0 0 0 0 0 -75 -58 0 -99 -108 -198 -287 -352 -429 -431 -444 -427 -370 -390 -356 -325 -305 -288 -259 -252 -259 -271 -207 -233 -232 -238
0 0 0 0 0 0 0 0 0 0 0 0 0 0 0 0 0 0 0 -6 -27 -122 -149 -235 -273 -322 -379 -415 -467 -427 -377 -364 -358 -350 -327 -310 -286 -250 -230 -242 -236 -210 -218 -205
0 0 0 0 0 0 0 0 0 0 0 0 0 0 0 0 0 0 0 0 -154 -145 -168 -206 -234 -293 -338 -396 -429 -437 -410 -385 -357 -362 -363 -318 -287 -284 -248 -186 -199 -199 -199 -191
0 0 0 0 0 0 0 0 0 0 0 0 0 0 0 0 0 0 0 0 -44 -120 -162 -181 -245 -278 -321 -355 -403 -428 -428 -395 -388 -364 -382 -345 -330 -324 -263 -186 -151 -153 -145 -164
0 0 0 0 0 0 0 0 -96 0 0 0 0 0 0 -29 0 0 0 0 0 -153 -153 -174 -237 -240 -321 -326 -359 -369 -412 -415 -442 -399 -377 -380 -354 -316 -274 -224 -188 -126 -108 -139
0 0 0 0 0 -37 -1 -25 -128 -167 -72 0 0 0 -253 -370 -195 -198 0 0 -89 0 -104 -94 -151 -232 -208 -244 -275 -288 -355 -433 -496 -448 -404 -364 -334 -286 -247 -220 -157 -99 -98 -124
0 0 0 -142 -140 -1 -80 -166 -161 -178 -213 -170 -213 -212 -221 -216 -225 -143 -178 0 -95 -122 0 -41 -150 -182 -123 -224 -228 -292 -393 -432 -509 -499 -418 -355 -317 -258 -209 -148 -122 -136 -134 -140
0 -1 0 -161 -140 -226 -201 -167 -201 -164 -193 -180 -197 -210 -206 -203 -227 -209 -191 -192 -197 -173 -157 0 -297 -194 -132 -146 -226 -323 -378 -396 -467 -477 -399 -353 -315 -234 -152 -143 -140 -145 -107 -238
0 -30 -34 -292 -341 -260 -322 -290 -331 -298 -251 -236 -198 -230 -187 -180 -198 -195 -226 -193 -181 -177 -151 -95 -175 -243 -174 -173 -251 -335 -334 -356 -395 -372 -364 -291 -244 -226 -193 -172 -172 -169 -150 -67
0 -11 -50 0 0 -134 -372 -397 -397 -519 -491 -408 -325 -285 -250 -219 -202 -198 -181 -192 -189 -167 -225 -290 -338 -206 -281 -332 -361 -353 -379 -323 -240 -262 -229 -368 -584 -403 -249 -317 -222 -226 -216 -198
-4 -16 0 0 0 0 0 0 0 -261 -461 -574 -464 -383 -430 -373 -381 -295 -241 -258 -230 -264 -253 -219 -276 -170 -286 -327 -310 -313 -319 -405 -370 -433 -521 -611 -573 -600 -46 -429 -89 -223 -285 -244
-2 0 0 0 0 0 0 0 0 0 0 0 0 -551 -510 -509 -483 -368 -313 -260 -182 -241 -324 -325 0 -18 -69 -341 -341 -298 -276 -343 -414 -393 -395 -337 -290 -193 -96 0 -16 -409 -373 -357
-57 0 0 0 0 0 0 0 0 0 0 0 0 0 0 0 -480 -399 -348 -321 -361 -350 0 -277 -150 -52 -27 -165 -230 -230 -299 -319 -305 -62 -259 -358 -285 -487 -282 -251 -293 -509 0 -536
-59 0 0 0 0 0 0 0 0 0 0 0 0 0 0 0 0 -356 -195 -165 -191 -166 -112 -57 -7 -13 -36 -96 -157 -247 -160 -207 -235 -229 -239 -286 -411 -516 -487 -333 -469 0 0 0
0 0 0 0 0 0 0 0 0 0 0 0 0 0 0 0 0 0 -246 -177 -145 -118 -52 -28 -43 -47 -91 -122 -159 -178 -192 -174 -217 -240 -236 -279 -428 -423 -356 -320 0 0 0 0
0 0 0 0 0 0 0 0 0 0 0 0 0 0 0 0 0 0 0 -125 -96 -127 -81 -70 -88 -122 -118 -83 -83 -97 -126 -144 -176 -187 -216 -269 -437 -432 -77 0 0 0 0 0
0 0 0 0 0 0 0 0 -73 0 0 0 0 0 0 -2 0 0 0 0 -15 -69 -128 -145 -158 -133 -179 -197 -237 -299 -145 -85 -112 -114 -161 -183 -169 -73 0 0 0 0 0 0
-14 -7 -5 -5 -16 -5 -7 -13 0 -54 -54 0 0 0 0 -81 -151 -53 0 0 0 0 -94 -89 -84 -105 -123 -73 0 -52 -159 -100 -113 -111 -114 -103 -72 -56 -72 -104 -18 0 0 0
-19 -23 -18 -12 -22 -15 -15 -15 -30 -27 -30 -32 -25 -38 0 0 0 -14 0 0 0 0 0 0 0 -21 -126 0 0 0 -78 -42 0 0 0 -80 0 0 -80 -89 -115 0 0 0
-8 -7 -7 -21 -15 -28 -31 -34 -24 -19 -20 -21 -29 -39 -34 -43 -51 -67 -91 0 -33 0 0 0 0 0 0 0 0 0 -92 -115 -98 -15 -132 -78 0 -79 -92 -80 -95 -127 -144 0
-12 -8 -13 -17 -24 -8 -13 -12 -13 -19 -30 -25 -24 -28 -34 -30 -39 -50 -4 0 0 0 0 0 0 0 0 0 -23 -58 -77 -95 -117 -115 -78 -133 -84 -75 -41 0 -85 -71 -143 -146
0 0 -12 0 0 0 0 -28 -5 -5 -27 -5 -3 -17 -19 -25 -11 -25 -2 0 0 0 0 0 0 0 0 0 0 -51 -58 -72 -63 -71 -67 0 0 0 0 -34 -94 -89 -90 -100
0 0 0 0 0 0 0 0 0 0 0 0 0 0 0 0 -14 -56 0 0 0 0 0 0 0 0 0 0 0 -6 -5 -5 -6 -6 -7 0 0 0 0 0 -7 -63 -61 -58
0 0 0 0 0 0 0 0 0 0 0 0 0 0 0 0 0 0 0 0 0 0 0 0 0 0 0 0 0 0 0 0 0 0 0 0 0 0 0 0 0 0 -47 -46
0 0 0 0 0 0 0 0 0 0 0 0 0 0 0 0 0 0 0 0 0 0 0 0 0 0 0 0 0 0 0 0 0 0 0 0 0 0 0 0 0 0 0 0
0 0 0 0 0 0 0 0 0 0 0 0 0 0 0 0 0 0 0 0 0 0 0 0 0 0 0 0 0 0 0 0 0 0 0 0 0 0 0 0 0 0 0 0
Wind_Speed
53 50 39 41 39 36 36 34 34 30 33 28 41 41 41 37 34 26 19 21 16 17 23 24 26 24 22 22 22 23 23 23 25 24 27 30 29 26 25 28 27 22 18 16
53 47 46 42 43 40 36 37 39 34 34 25 29 40 42 40 35 25 18 23 28 21 26 25 30 27 24 22 24 23 24 24 22 22 23 27 25 22 21 21 21 17 17 16
52 42 42 50 47 40 37 33 36 37 29 23 22 27 27 32 27 30 26 25 20 18 20 24 27 26 23 22 20 22 22 21 21 21 22 24 21 19 20 19 15 16 15 14
48 43 52 45 42 43 39 36 29 33 30 26 26 26 33 33 32 22 18 19 21 17 19 20 24 25 22 20 20 20 23 22 21 20 22 21 20 20 18 16 17 15 14 14
41 42 38 37 36 38 38 43 37 33 28 35 26 24 26 28 29 26 28 26 16 14 16 20 21 24 23 20 20 20 20 21 22 23 20 20 22 20 17 16 15 14 13 12
38 38 46 39 23 21 22 32 30 27 22 18 19 22 19 20 23 26 27 30 29 21 16 22 20 24 25 24 23 23 22 23 22 23 23 21 20 19 19 17 16 15 13 11
44 39 38 30 28 22 33 28 19 18 17 16 17 15 14 17 18 22 25 28 28 29 22 22 23 22 23 23 26 26 23 21 20 20 25 23 19 17 18 19 18 16 15 14
37 35 37 26 33 39 23 16 15 15 15 13 10 9 10 12 15 18 22 24 28 29 29 28 25 26 30 30 27 24 22 23 23 21 24 26 22 20 18 18 19 17 16 15
33 28 26 29 21 16 18 18 17 14 12 10 10 11 13 14 16 18 22 27 31 32 32 37 33 31 31 31 28 27 26 24 23 22 22 24 24 22 20 20 20 18 17 14
36 20 21 18 18 12 13 14 14 13 12 11 10 11 11 13 18 21 24 27 30 33 38 39 37 38 36 32 28 25 24 25 23 21 19 21 23 23 22 22 19 16 12 10
34 27 23 18 16 16 10 9 10 11 11 12 10 10 12 14 18 20 24 26 28 30 32 35 37 32 32 32 29 29 25 23 22 21 19 18 20 22 22 22 21 15 9 6
31 26 16 16 13 10 8 8 9 9 10 11 11 12 15 17 18 19 22 25 27 28 29 29 31 36 30 24 23 24 23 23 22 21 19 17 19 19 19 15 13 4 3 4
27 19 16 9 5 7 6 8 9 10 12 13 14 16 16 17 19 19 21 24 27 28 28 31 38 39 53 20 18 18 18 17 19 23 19 16 11 5 11 10 3 5 1 2
24 16 17 13 10 7 6 9 11 10 11 12 14 17 18 19 19 21 22 23 25 26 26 26 33 28 20 19 16 11 12 15 13 10 2 10 10 4 5 6 3 4 5 2
17 11 16 10 4 8 7 9 15 16 15 14 15 16 18 19 18 20 20 20 21 23 23 21 16 11 9 18 9 2 5 8 2 2 3 5 6 4 2 6 6 5 5 7
12 10 14 12 12 11 9 8 15 18 16 14 15 16 16 15 16 17 19 20 18 20 19 18 18 22 15 8 4 3 4 2 1 3 4 6 4 2 5 4 3 5 5 6
6 10 12 9 10 11 12 9 16 17 14 14 15 16 15 15 16 17 17 17 16 15 16 17 18 17 15 12 8 5 4 2 1 1 1 1 3 3 5 5 6 6 6 2
7 7 7 8 8 7 9 9 11 13 13 12 12 14 15 16 16 16 16 15 14 14 15 16 16 15 14 13 9 9 5 2 2 3 3 3 2 1 6 7 6 6 6 5
9 9 10 6 7 8 9 10 11 14 15 16 15 15 15 15 16 16 16 16 15 14 15 14 15 15 14 14 13 11 7 4 7 7 8 9 8 6 4 6 8 7 6 5
10 11 12 11 13 10 9 10 12 13 14 14 13 15 15 15 14 13 15 16 16 16 17 18 19 19 16 16 14 12 11 10 7 7 8 9 6 6 7 10 9 4 4 4
2 12 13 10 7 8 12 11 13 14 15 15 13 14 16 14 13 14 15 17 19 17 18 18 18 18 18 18 19 18 13 14 12 13 14 14 15 13 12 9 5 5 4 2
16 14 12 14 14 11 12 13 14 14 16 16 16 15 15 15 15 15 14 14 15 16 17 18 19 18 18 20 17 13 12 13 12 11 9 10 8 6 9 8 6 7 6 8
20 20 19 18 17 16 14 14 16 16 17 16 17 15 16 15 15 16 16 17 16 17 18 19 20 19 18 21 15 11 9 6 6 8 8 6 6 6 8 11 11 11 9 8
20 21 20 19 18 18 17 17 18 20 19 20 20 19 18 17 17 18 18 18 17 18 19 20 20 20 18 19 16 12 11 9 8 7 6 6 8 11 13 16 14 12 9 9
24 22 21 20 20 19 20 19 19 20 20 20 21 21 20 20 18 18 20 19 18 18 18 19 20 19 18 17 16 16 14 14 15 14 14 13 12 13 14 14 13 13 12 12
25 24 23 23 22 22 22 21 20 21 21 20 20 20 20 20 20 21 21 21 21 21 20 19 19 19 18 17 16 17 17 17 16 16 16 16 17 17 17 16 15 16 15 15
25 25 25 24 25 24 24 23 21 22 21 20 20 21 21 21 22 22 23 22 22 21 21 21 21 20 19 18 17 17 17 18 18 17 17 17 18 19 20 17 15 16 16 16
Wind_Direction
258 255 244 246 248 243 240 234 236 232 264 265 262 262 260 270 270 265 249 237 252 240 228 209 200 198 196 197 195 190 189 189 188 187 186 187 188 190 191 191 193 194 197 199
258 255 245 244 244 247 248 244 252 260 267 269 268 261 258 262 272 254 243 240 261 238 198 207 201 197 196 197 194 192 193 195 192 192 190 189 192 194 196 198 200 208 208 210
255 256 245 245 238 241 248 251 251 253 261 265 261 262 258 259 268 257 251 257 239 227 216 204 205 205 203 200 201 200 204 203 199 199 197 197 199 205 203 206 225 219 222 219
256 259 240 242 244 243 248 253 260 259 257 257 255 263 261 261 262 261 247 264 257 236 207 207 214 217 217 219 212 208 202 204 207 206 206 205 209 207 212 221 214 217 226 225
251 252 250 245 246 238 242 251 256 263 267 257 261 264 268 259 254 259 262 258 262 250 239 228 218 231 230 221 216 215 215 214 210 211 213 213 210 214 220 230 232 234 230 229
248 249 244 242 244 228 246 250 253 252 259 260 248 253 264 267 256 262 265 265 260 259 243 229 234 224 229 228 224 218 219 212 213 217 222 219 216 220 235 237 241 247 249 248
240 248 250 250 246 246 240 248 248 248 250 251 258 258 268 274 274 266 267 268 266 258 248 242 234 227 227 224 226 217 224 231 237 228 226 228 231 233 232 240 251 254 261 271
232 247 239 284 260 240 237 240 237 246 255 254 261 272 282 285 284 275 272 274 273 269 263 253 241 235 244 243 235 233 238 243 245 237 239 239 235 238 235 240 246 252 257 270
228 240 269 272 270 248 223 223 242 243 257 256 264 277 283 290 291 287 282 278 277 274 272 263 256 248 243 242 245 247 245 242 239 242 239 237 234 236 238 241 246 253 259 271
225 249 276 276 269 276 239 232 241 248 254 266 267 282 292 297 295 294 291 286 284 278 272 268 264 253 248 246 239 233 235 237 238 233 228 231 231 234 236 237 241 247 255 219
230 254 262 265 275 264 267 253 255 264 264 275 279 292 297 300 301 300 297 294 292 286 284 280 276 258 251 248 237 230 230 237 239 243 239 235 240 243 240 247 245 241 248 242
225 246 255 253 273 278 277 275 276 277 274 288 298 297 298 308 311 307 305 297 294 297 297 295 292 286 251 227 217 221 223 225 237 240 241 240 243 248 257 260 271 270 249 289
223 240 230 240 301 310 308 305 298 293 289 284 299 302 310 314 317 314 311 307 306 304 304 301 297 284 259 215 205 211 215 229 236 232 242 244 248 270 274 280 319 297 43 27
218 236 230 251 268 328 325 320 305 303 300 305 303 307 302 311 317 319 317 316 317 313 314 311 312 287 288 253 235 244 262 239 252 264 60 257 254 220 215 269 235 303 329 355
225 246 227 243 296 352 336 313 301 310 300 309 317 307 311 316 316 323 327 333 341 331 336 337 330 309 279 262 283 265 307 281 229 210 169 201 263 294 299 274 288 301 320 338
228 251 250 269 280 298 336 331 297 300 310 312 307 310 321 332 334 332 335 340 345 348 345 346 350 6 19 31 23 41 102 115 183 218 235 251 267 309 282 275 279 316 326 336
229 255 264 279 285 294 295 307 303 289 326 330 312 315 324 328 334 335 336 343 347 351 347 348 359 7 13 28 31 37 69 70 42 46 333 356 343 271 256 275 293 301 313 354
291 287 284 285 291 305 325 325 298 311 310 324 307 319 335 340 339 329 343 341 339 343 342 344 347 349 353 351 344 330 332 314 306 314 329 336 334 243 277 281 280 291 305 314
195 203 213 257 305 307 300 320 327 318 308 290 311 318 337 343 343 336 333 329 328 325 323 338 341 336 337 328 335 322 327 313 294 285 290 291 277 273 271 266 280 291 296 290
186 200 211 239 234 253 355 338 335 308 313 312 310 315 314 319 324 323 329 332 322 314 315 312 307 308 316 312 323 342 333 312 310 305 311 302 299 292 277 284 281 261 269 276
46 34 30 23 14 5 12 5 15 7 10 12 12 5 -0 344 335 322 330 320 307 321 328 323 318 314 309 302 292 300 302 299 303 294 295 294 292 298 302 294 271 275 288 265
22 22 17 15 19 17 10 7 6 4 4 18 23 26 22 14 16 10 357 343 329 342 343 337 331 326 326 322 312 314 302 293 302 307 308 298 295 292 274 278 297 295 291 300
27 30 27 20 15 7 1 360 2 6 12 9 2 1 1 353 353 357 346 339 339 340 342 343 339 334 331 335 326 325 332 332 313 310 302 311 310 296 301 300 297 291 283 290
23 22 16 10 9 8 4 360 6 12 11 9 8 -0 354 350 342 335 340 347 344 336 337 340 348 348 338 338 336 330 347 349 339 334 339 335 325 324 315 312 309 302 291 285
21 13 6 2 1 358 356 349 357 354 356 355 360 7 6 6 356 345 347 346 351 355 346 347 346 349 350 344 344 337 335 330 330 323 315 316 317 317 317 320 319 318 313 303
20 11 3 358 354 351 349 347 350 347 349 354 352 351 350 350 346 344 343 346 347 353 352 352 350 350 349 346 343 345 345 339 334 333 329 324 319 315 316 315 314 313 311 310
13 7 1 352 347 341 346 352 354 350 351 351 347 341 342 345 346 345 343 343 345 345 346 348 345 347 346 344 342 338 336 337 338 335 334 331 326 320 316 319 322 320 321 322